Location: Courçay
(47.2523°N, 0.8761°E)
Time: 00:20:06
(UTC+00:00)

Resurs 01 Rocket - Pass Details

Date: 18 November 2025
Orbit: 627 x 636 km, 97.7° (Epoch: 05 December)

Event Time Altitude Azimuth Distance (km) Brightness Sun altitude
Exits shadow 17:30:07 11° 35° (NE) 2,000 3.7 -12.2°
Drops below altitude 10° 17:30:19 10° 33° (NNE) 2,033 3.8 -12.2°
Sets 17:33:43 0° 5° (N) 2,947 4.8 -12.8°
